Location: Newark
(7.1028°S, 35.3258°W)
Time: 17:59:31
(UTC+00:00)

Hubble Space Telescope - Visible Passes

Search period start: 20 January 2020 00:00
Search period end: 30 January 2020 00:00
Orbit: 536 x 540 km, 28.5° (Epoch: 19 January)

Date Brightness Start Highest point End Pass type
(mag) Time Alt. Az. Time Alt. Az. Time Alt. Az.
20 Jan 3.1 07:06:33 10° SSW 07:09:47 22° SSE 07:13:01 10° ESE visible
20 Jan 1.2 22:24:46 10° WNW 22:28:50 56° SSW 22:29:13 53° S visible
21 Jan 2.6 06:55:38 10° SW 06:59:14 28° SSE 07:02:50 10° E visible
21 Jan 2.0 22:14:20 10° W 22:18:14 40° SSW 22:20:23 22° SSE visible
22 Jan 2.0 06:46:20 20° SSW 06:48:40 38° SSE 06:52:32 10° E visible
22 Jan 2.6 22:04:01 10° W 22:07:40 29° SSW 22:11:19 10° SE visible
23 Jan 1.3 06:37:34 50° S 06:38:04 54° SSE 06:42:07 10° ENE visible
23 Jan 3.1 21:53:49 10° WSW 21:57:06 22° SSW 22:00:23 10° SSE visible
24 Jan 1.8 06:28:50 41° ENE 06:28:50 41° ENE 06:31:36 10° ENE visible
24 Jan 3.5 21:43:47 10° WSW 21:46:34 17° SSW 21:49:23 10° SSE visible
25 Jan 3.2 06:20:03 16° NE 06:20:03 16° NE 06:20:58 10° NE visible
25 Jan 2.8 07:56:22 10° NW 07:57:59 12° NNW 07:59:35 10° N visible
25 Jan 3.6 21:33:57 10° SW 21:36:04 14° SSW 21:38:10 10° S visible
26 Jan 3.8 21:24:41 10° SSW 21:25:35 11° SSW 21:26:29 10° S visible
